Weather Roundup
Issued by NWS Chicago, IL

Home | Current Version | Previous Version | Text Only | Print | Product List | Glossary Off
Versions: 1 2 3 4 5 6 7 8 9 10 11 12 13 14 15 16 17 18 19 20 21 22 23 24 25 26 27 28 29 30 31 32 33 34 35 36 37 38 39 40 41 42 43 44 45 46 47 48 49 50

000
NZUS59 KLOT 300108
HRRLOT

CHICAGO AREA WEATHER ROUNDUP
NATIONAL WEATHER SERVICE CHICAGO/ROMEOVILLE IL
800 PM CDT SAT APR 29 2017

NOTE: "FAIR" INDICATES FEW OR NO CLOUDS BELOW 12,000 FEET WITH NO
SIGNIFICANT WEATHER AND/OR OBSTRUCTIONS TO VISIBILITY.

* THESE STATIONS ARE NOT UNDER NWS QUALITY CONTROL. THEY ALSO MAY NOT
  REPORT WEATHER SUCH AS PRECIPITATION OR FOG.

ILZ005-006-012>014-019>023-300200-
NORTHEAST ILLINOIS

CITY           SKY/WX    TMP DP  RH WIND       PRES   REMARKS
OHARE          LGT RAIN  41  39  93 NE18G28   30.07F FOG
MIDWAY         LGT RAIN  43  42  97 NE26G43   30.00F FOG
AURORA         HVY RAIN  41  40  96 NE29G39   29.97F FOG
LANSING*       RAIN      44  44 100 NE23G32   30.01F
JOLIET*        HVY RAIN  43  43  98 NE29G36   29.93F
WAUKEGAN       LGT RAIN  40  38  93 NE18G31   30.12F
DUPAGE AIRPORT RAIN      40  40 100 NE25G36   30.00F FOG
WHEELING       LGT RAIN  40  40 100 NE17G28   30.10F FOG
MORRIS*        CLOUDY    42  41  95 NE14G30   29.89F
LEWIS AIRPORT* RAIN      42  42 100 NE35G41   29.96F
NORTHERLY ISL    N/A     42  41  96 N26         N/A
$$

WIZ051-052-058>065-066-070>072-300200-
SOUTHEAST WISCONSIN

CITY           SKY/WX    TMP DP  RH WIND       PRES   REMARKS
MILWAUKEE      LGT RAIN  39  37  92 NE22G31   30.16F
KENOSHA*       LGT RAIN  39  36  89 NE18      30.15F
RACINE*        LGT RAIN  39  36  89 NE20G28   30.18F
WAUKESHA       LGT RAIN  36  34  93 NE18G25   30.17F
WEST BEND      LGT RAIN  36  34  93 NE14G22   30.19F
$$

INZ001>003-010>013-019-020-300200-
NORTHWEST INDIANA

CITY           SKY/WX    TMP DP  RH WIND       PRES   REMARKS
GARY*          RAIN      45  43  93 NE28G43   30.05F
MICHIGAN CITY* NOT AVBL
RENSSELAER*    NOT AVBL
VALPARAISO     TSTM      48  47  96 N13       30.01F FOG
$$

LMZ740>746-300200-
SOUTHERN LAKE MICHIGAN

STATION/POSITION TIME  SKY/WX   TEMP WIND        PRES    VSBY
                                AIR  DIR/SP/G
                 (UTC)          (F)  (DEG/KT/KT) (MB)    (MI)
HARRISON CRIB    0030            42   20/ 26/ 29   N/A
BURNHAM HARBOR   0100            42   10/ 23/ 25   N/A
CALUMET HARBOR   0048            43  360/ 19/ 27 1017.5F
BURNS HARBOR     0040            45   10/ 23/ 42 1018.6R
MICHIGAN CITY    0040            45   20/ 30/ 33   N/A
$$

ABBREVIATIONS USED IN REMARKS
   TC - TEMPERATURE IN CELSIUS
  WCI - WIND CHILL INDEX
   HX - HEAT INDEX
  VSB - VISIBILITY
$$




USA.gov is the U.S. government's official web portal to all federal, state and local government web resources and services.